7 * 24
多渠道服务支持
STARLINK-34142是美国SpaceX星链(Starlink)项目的低轨互联网通信卫星,于2025年5月13日由猎鹰9号火箭从肯尼迪航天中心发射,本次任务共送入28颗星链卫星。它属于SpaceX批量生产的星链卫星,采用平板设计搭载太阳电池阵,配备氪工质霍尔推进器与自主避撞系统,使用Ku/Ka频段和光学星间链路,旨在为全球提供普惠宽带互联网接入服务,预期使用寿命约5-7年,退役后将主动离轨在大气层焚毁。
美国
(US)
| 数据来源 | 国际轨道数据 |
| 星历时间: | 2026-09-03T08:22:37+0800 1天前 查看轨道信息 |
| 半长轴: | 6861.126km |
| 偏心率: | 0.000042 |
| 轨道倾角: | 42.999° |
| 近地点辐角 | 272.141° |
| 升交点赤经 | 254.985° |
| 平近点角 | 87.939° |
| 近地点: | 482.7km |
| 远地点: | 483.278km |
| 周期: | 94.265分钟 |
| 每日圈数: | 15.276003 |
| 事件ID | 空间交会对象 | 最接近时刻(TCA) | 交会距离 | 交会风险概率(CRP) | 交会风险指数(CRI) | 操作 |
|---|---|---|---|---|---|---|
| CDM_260904-150205-807906-395722 |
STARLINK-30598
(58079)
STARLINK-34142
(63957) | 2026-09-04T 15:02:18+0000 |
0.454 km
远距离 | 1.766947E-4 高风险 | 0.8 | |
| CDM_260905-073005-807906-395721 |
STARLINK-30598
(58079)
STARLINK-34142
(63957) | 2026-09-05T 07:30:55+0000 |
0.514 km
远距离 | 1.319122E-4 高风险 | 0.77 | |
| CDM_260828-115905-807906-395721 |
STARLINK-30598
(58079)
STARLINK-34142
(63957) | 2026-08-28T 11:59:14+0000 |
0.732 km
远距离 | 4.890036E-5 中风险 | 0.69 | |
| CDM_260828-133305-807906-395721 |
STARLINK-30598
(58079)
STARLINK-34142
(63957) | 2026-08-28T 13:33:23+0000 |
1.013 km
极远距离 | 1.666416E-5 中风险 | 0.59 | |
| CDM_260904-132805-807906-395721 |
STARLINK-30598
(58079)
STARLINK-34142
(63957) | 2026-09-04T 13:28:08+0000 |
1.070 km
极远距离 | 1.374402E-5 中风险 | 0.58 | |
| CDM_260904-194705-322006-395721 |
STARLINK-4363
(53220)
STARLINK-34142
(63957) | 2026-09-04T 19:47:41+0000 |
1.199 km
极远距离 | 1.035877E-5 中风险 | 0.55 | |
| CDM_260827-193005-807906-395721 |
STARLINK-30598
(58079)
STARLINK-34142
(63957) | 2026-08-27T 19:30:40+0000 |
1.248 km
极远距离 | 8.094362E-6 低风险 | 0.53 | |
| CDM_260827-210405-807906-395721 |
STARLINK-30598
(58079)
STARLINK-34142
(63957) | 2026-08-27T 21:04:49+0000 |
1.373 km
极远距离 | 5.855486E-6 低风险 | 0.5 | |
| CDM_260905-055605-807906-395721 |
STARLINK-30598
(58079)
STARLINK-34142
(63957) | 2026-09-05T 05:56:45+0000 |
1.669 km
极远距离 | 3.15409E-6 低风险 | 0.45 | |
| CDM_260904-163605-807906-395722 |
STARLINK-30598
(58079)
STARLINK-34142
(63957) | 2026-09-04T 16:36:27+0000 |
1.998 km
极远距离 | 1.933366E-6 低风险 | 0.41 |